Location: Unspecified
(52.0000°N, 4.4000°E)
Time: 16:20:58
(UTC+00:00)

ARIANE 6 FM1 Upper Stage - Visible Passes

Search period start: 17 July 2025 00:00
Search period end: 27 July 2025 00:00
Orbit: 529 x 612 km, 62.0° (Epoch: 16 July)

Date Brightness Start Highest point End Pass type
(mag) Time Alt. Az. Time Alt. Az. Time Alt. Az.
17 Jul 4.8 02:11:45 10° SSE 02:14:14 16° ESE 02:16:44 10° E visible
18 Jul 4.3 02:12:27 10° S 02:15:36 23° ESE 02:18:46 10° ENE visible
19 Jul 3.8 02:13:51 12° S 02:17:01 32° SE 02:20:35 10° ENE visible
20 Jul 3.2 02:15:22 15° SSW 02:18:28 45° SE 02:22:17 10° ENE visible
21 Jul 5.0 00:40:59 10° SE 00:41:37 10° ESE 00:42:14 10° ESE visible
21 Jul 2.7 02:16:50 16° SSW 02:19:57 64° SE 02:23:55 10° NE visible
22 Jul 4.6 00:42:10 14° SE 00:42:55 15° ESE 00:45:16 10° E visible
22 Jul 2.5 02:18:15 15° SW 02:21:28 88° SE 02:25:29 10° NE visible
23 Jul 4.1 00:43:32 20° SE 00:44:16 21° ESE 00:47:20 10° ENE visible
23 Jul 2.7 02:19:38 14° WSW 02:23:01 68° NW 02:27:01 10° NE visible
24 Jul 3.6 00:44:52 28° SSE 00:45:39 30° SE 00:49:10 10° ENE visible
24 Jul 3.2 02:20:58 12° WSW 02:24:37 51° NW 02:28:33 10° NE visible
25 Jul 3.1 00:46:10 36° SSE 00:47:04 42° SE 00:50:52 10° ENE visible
25 Jul 3.6 02:22:26 10° WSW 02:26:14 40° NNW 02:30:03 10° NE visible
26 Jul 2.6 00:47:25 41° SSW 00:48:32 60° SE 00:52:29 10° NE visible
26 Jul 4.0 02:24:15 10° W 02:27:53 33° NNW 02:31:34 10° NE visible
26 Jul 4.8 23:12:32 13° E 23:12:32 13° E 23:13:40 10° E visible
